This is the latest recevied weather packets stored in our database for station/object K9ABJ. If no packets are shown the sender has not sent any weather packets the latest 10 day(s).
| Time | Temp. | Humidity | Pressure | Rain* | Wind** | Luminosity | Snow |
|---|---|---|---|---|---|---|---|
| 1787662260 | 15.56° C | 94% | 1020.7 hPa | 0 mm | - | 147 W/m² | - |
| 1787661956 | 15.56° C | 95% | 1020.7 hPa | 0 mm | - | 137 W/m² | - |
| 1787661656 | 15° C | 95% | 1020.5 hPa | 0 mm | - | 124 W/m² | - |
| 1787661355 | 15° C | 95% | 1020.4 hPa | 0 mm | - | 141 W/m² | - |
| 1787661054 | 15° C | 95% | 1020.6 hPa | 0 mm | - | 127 W/m² | - |
| 1787660750 | 14.44° C | 95% | 1020.8 hPa | 0 mm | - | 122 W/m² | - |
| 1787660450 | 13.89° C | 95% | 1020.7 hPa | 0 mm | - | 105 W/m² | - |
| 1787660144 | 14.44° C | 96% | 1020.6 hPa | 0 mm | - | 102 W/m² | - |
| 1787659844 | 14.44° C | 96% | 1020.6 hPa | 0 mm | - | 88 W/m² | - |
| 1787659541 | 12.78° C | 95% | 1020.9 hPa | 0 mm | - | 71 W/m² | - |
| 1787659238 | 12.78° C | 95% | 1020.4 hPa | 0 mm | - | 57 W/m² | - |
| 1787658938 | 12.78° C | 95% | 1020.3 hPa | 0 mm | - | 46 W/m² | - |
| 1787658637 | 13.89° C | 96% | 1020.4 hPa | 0 mm | - | 34 W/m² | - |
| 1787658333 | 13.89° C | 95% | 1020.5 hPa | 0 mm | - | 29 W/m² | - |
| 1787658028 | 14.44° C | 96% | 1020.4 hPa | 0 mm | - | 26 W/m² | - |
| 1787657724 | 13.89° C | 96% | 1020.4 hPa | 0 mm | - | 23 W/m² | - |
| 1787657420 | 13.89° C | 96% | 1020.4 hPa | 0 mm | - | 20 W/m² | - |
| 1787657120 | 12.78° C | 96% | 1020.4 hPa | 0 mm | - | 17 W/m² | - |
| 1787656816 | 11.67° C | 95% | 1020.4 hPa | 0 mm | - | 12 W/m² | - |
| 1787656511 | 11.67° C | 95% | 1020.1 hPa | 0 mm | - | 7 W/m² | - |
| 1787656206 | 11.11° C | 95% | 1020.2 hPa | 0 mm | - | 4 W/m² | - |
| 1787655903 | 11.67° C | 95% | 1020 hPa | 0 mm | - | 0 W/m² | - |
| 1787655602 | 11.11° C | 95% | 1019.8 hPa | 0 mm | - | 0 W/m² | - |
| 1787655302 | 11.11° C | 95% | 1020.1 hPa | 0 mm | - | 0 W/m² | - |
| 1787654996 | 11.11° C | 95% | 1020.1 hPa | 0 mm | - | 0 W/m² | - |
* Rain latest hour (hover to see other rain measurements)
** Current wind speed in m/s (hover to see current wind gust speed)